Find Starlink 33813

NORAD ID: 63585 Int'l Des: 2025-076 Owner: SPXS Country: US Constellation: starlink operational
LEOCIRCULAR

实时位置

正在加载3D地球...

关于 Starlink 33813

正在加载描述...

即将过境

Passes for default location (London). Set your location on the main map for personalized predictions.

高度历史

Loading altitude history...

两行轨道根数

1 63585U 25076S 26126.61080590 .00027201 00000-0 99418-3 0 9999
2 63585 43.0002 354.1585 0000703 22.8162 337.2721 15.27585268 60695
Epoch: May 6, 2026 • Age: 9 hours

当前状态

高度 494.6 km
速度 7.62 km/s
星下点 -38.95°S, 70.87°E
发射日期 Apr 14, 2025
运行时间 1 years
类型 internet

技术详情

分类 Payload
质量 575.00 kg
干质量 530.00 kg
总质量 575.00 kg
长度 0.30 m
直径 4.10 m
跨度 29.00 m
形状 Box + pan
制造商 SPXS
平台类型 Starlink V2MO
阶段状态 In Orbit
所有者/国家 SPXS/US

Most Searched